period_start,C,m1,H,J0,J1,J2,J3,J4,J5,JA,JB,JC,JD,JJ,JK,JN,#
2017-03-26 00:03:41,0.26,7.96,0.00,24.65,27.47,30.79,14.27,50.26,1007.34,2025.02,1512.20,1630.24,1874.81,599.98,587.31,21.14,0000 0000 0000 0000 000000
2017-03-26 00:08:42,0.29,7.97,0.00,24.64,27.48,30.85,14.29,50.21,1007.34,2025.01,1510.10,1628.80,1873.15,599.81,587.17,21.20,0000 0000 0000 0000 000000
2017-03-26 00:13:44,0.29,7.99,0.00,24.55,27.48,30.98,14.26,50.20,1007.35,2025.00,1508.03,1627.48,1871.51,599.80,587.40,21.25,0000 0000 0000 0000 000000
2017-03-26 00:18:45,0.27,8.00,0.00,24.52,27.49,31.00,14.35,50.27,1007.36,2025.00,1506.01,1626.07,1869.83,600.16,587.79,21.30,0000 0000 0000 0000 000000
2017-03-26 00:23:46,0.26,8.02,0.00,24.69,27.49,30.95,14.30,50.24,1007.50,2025.00,1504.16,1624.71,1868.35,599.93,587.15,21.35,0000 0000 0000 0000 000000
2017-03-26 00:28:47,0.28,8.03,0.00,24.79,27.50,30.85,14.24,50.28,1007.74,2025.01,1502.14,1623.45,1866.72,599.97,587.36,21.40,0000 0000 0000 0000 000000
2017-03-26 00:33:49,0.27,8.05,0.00,24.61,27.50,30.87,14.33,50.49,1007.78,2025.00,1500.11,1622.00,1865.10,599.98,587.64,21.45,0000 0000 0000 0000 000000
2017-03-26 00:38:50,0.29,8.06,0.00,24.73,27.50,30.88,14.34,50.34,1007.80,2025.00,1498.06,1620.63,1863.49,600.14,587.48,21.50,0000 0000 0000 0000 000000
2017-03-26 00:43:51,0.26,8.08,0.00,24.75,27.51,30.88,14.23,50.23,1007.78,2025.00,1496.18,1619.36,1861.88,599.99,587.44,21.55,0000 0000 0000 0000 000000
2017-03-26 00:48:52,0.27,8.09,0.00,24.79,27.52,30.85,14.35,50.48,1007.81,2025.00,1494.15,1617.96,1860.33,600.18,587.48,21.60,0000 0000 0000 0000 000000
2017-03-26 00:53:54,0.29,8.10,0.00,24.78,27.52,30.85,14.37,50.52,1007.82,2025.00,1492.17,1616.60,1858.70,600.05,587.44,21.65,0000 0000 0000 0000 000000
2017-03-26 00:58:55,0.25,8.12,0.00,24.84,27.52,30.82,14.29,50.45,1007.83,2025.00,1490.32,1615.35,1857.14,600.11,587.24,21.70,0000 0000 0000 0000 000000
2017-03-26 01:03:57,0.27,8.13,0.00,24.86,27.52,30.81,14.25,50.43,1007.83,2025.00,1488.42,1613.98,1855.63,599.94,587.29,21.75,0000 0000 0000 0000 000000
2017-03-26 01:08:58,0.27,8.14,0.00,24.85,27.54,30.79,14.29,50.49,1007.82,2025.00,1486.49,1612.61,1854.15,599.98,587.22,21.80,0000 0000 0000 0000 000000
2017-03-26 01:14:00,0.27,8.16,0.00,24.85,27.55,30.81,14.33,50.59,1007.81,2025.00,1484.54,1611.30,1852.56,600.27,587.51,21.85,0000 0000 0000 0000 000000
2017-03-26 01:19:01,0.28,8.17,0.00,24.88,27.55,30.78,14.25,50.60,1007.80,2025.00,1482.55,1609.88,1850.95,600.00,587.24,21.90,0000 0000 0000 0000 000000
2017-03-26 01:24:02,0.32,8.19,0.00,24.90,27.56,30.76,14.27,50.60,1007.76,2025.00,1480.31,1608.47,1849.08,600.01,587.03,21.95,0000 0000 0000 0000 000000
2017-03-26 01:29:04,0.30,8.20,0.00,24.88,27.57,30.75,14.34,50.66,1007.67,2024.99,1478.17,1607.01,1847.40,600.31,587.32,22.00,0000 0000 0000 0000 000000
2017-03-26 01:34:05,0.31,8.22,0.00,24.87,27.57,30.78,14.26,50.43,1007.77,2024.99,1476.03,1605.59,1845.66,599.56,586.82,22.05,0000 0000 0000 0000 000000
2017-03-26 01:39:07,0.28,8.23,0.00,24.90,27.57,30.75,14.17,50.58,1007.76,2024.99,1473.94,1604.20,1843.98,599.98,587.07,22.10,0000 0000 0000 0000 000000
2017-03-26 01:44:08,0.31,8.25,0.00,24.93,27.57,30.71,14.24,50.39,1007.79,2024.99,1471.78,1602.76,1842.27,599.97,587.01,22.15,0000 0000 0000 0000 000000
2017-03-26 01:49:09,0.28,8.26,0.00,24.90,27.57,30.70,14.31,50.43,1007.70,2024.99,1469.88,1601.41,1840.65,600.38,587.38,22.20,0000 0000 0000 0000 000000
2017-03-26 01:54:10,0.30,8.28,0.00,24.92,27.56,30.71,14.24,50.52,1007.48,2024.97,1467.87,1599.90,1838.89,599.85,586.72,22.25,0000 0000 0000 0000 000000
2017-03-26 01:59:11,0.27,8.29,0.00,24.91,27.55,30.72,14.26,50.53,1007.43,2024.98,1465.90,1598.69,1837.33,600.06,587.00,22.30,0000 0000 0000 0000 000000
2017-03-26 02:04:13,0.30,8.31,0.00,24.91,27.55,30.70,14.31,50.69,1007.37,2024.96,1463.80,1597.38,1835.60,600.24,587.06,22.35,0000 0000 0000 0000 000000
2017-03-26 02:09:14,0.29,8.32,0.00,24.94,27.55,30.71,14.18,50.65,1007.38,2024.96,1461.69,1595.95,1833.91,599.88,586.66,22.40,0000 0000 0000 0000 000000
2017-03-26 02:14:15,0.31,8.34,0.00,24.91,27.55,30.67,14.27,50.72,1007.38,2024.98,1459.60,1594.52,1832.24,600.09,587.04,22.45,0000 0000 0000 0000 000000
2017-03-26 02:19:16,0.27,8.35,0.00,24.92,27.55,30.69,14.27,50.95,1007.35,2024.98,1457.77,1593.23,1830.64,600.21,586.92,22.50,0000 0000 0000 0000 000000
2017-03-26 02:24:18,0.30,8.36,0.00,24.93,27.55,30.68,14.25,51.11,1007.34,2024.99,1455.87,1591.77,1829.02,600.11,587.02,22.55,0000 0000 0000 0000 000000
2017-03-26 02:29:19,0.29,8.38,0.00,24.90,27.55,30.67,14.31,51.20,1007.34,2024.98,1453.75,1590.35,1827.28,599.73,586.62,22.60,0000 0000 0000 0000 000000
2017-03-26 02:34:20,0.31,8.40,0.00,24.91,27.54,30.70,14.27,51.08,1007.36,2024.98,1451.71,1588.90,1825.61,599.93,586.73,22.65,0000 0000 0000 0000 000000
2017-03-26 02:39:21,0.31,8.41,0.00,24.91,27.54,30.66,14.32,50.72,1007.77,2024.97,1449.57,1587.49,1823.88,600.18,587.20,22.70,0000 0000 0000 0000 000000
2017-03-26 02:44:22,0.27,8.43,0.00,24.92,27.52,30.66,14.27,50.55,1007.83,2024.99,1447.50,1586.11,1822.22,600.15,587.13,22.75,0000 0000 0000 0000 000000
2017-03-26 02:49:23,0.32,8.44,0.00,24.91,27.52,30.69,14.22,50.61,1007.83,2024.99,1445.56,1584.72,1820.60,599.68,586.77,22.80,0000 0000 0000 0000 000000
2017-03-26 02:54:25,0.27,8.46,0.00,24.93,27.52,30.67,14.21,50.37,1007.83,2024.99,1443.52,1583.41,1818.98,599.92,587.00,22.85,0000 0000 0000 0000 000000
2017-03-26 02:59:26,0.28,8.47,0.00,24.95,27.52,30.68,14.38,50.58,1007.83,2024.99,1441.65,1581.98,1817.44,600.27,587.14,22.90,0000 0000 0000 0000 000000
2017-03-26 03:04:27,0.31,8.48,0.00,24.95,27.52,30.65,14.22,50.37,1008.01,2024.98,1439.73,1580.65,1815.80,600.55,587.69,22.95,0000 0000 0000 0000 000000
2017-03-26 03:09:29,0.27,8.50,0.00,24.96,27.52,30.65,14.29,50.37,1008.31,2024.98,1437.66,1579.37,1814.28,599.90,587.19,23.00,0000 0000 0000 0000 000000
2017-03-26 03:14:30,0.27,8.51,0.00,24.97,27.51,30.65,14.28,50.14,1008.31,2024.98,1435.79,1578.02,1812.69,599.84,587.10,23.05,0000 0000 0000 0000 000000
2017-03-26 03:19:31,0.24,8.53,0.00,24.96,27.50,30.64,14.28,50.27,1008.31,2024.99,1434.18,1576.79,1811.29,600.11,587.40,23.10,0000 0000 0000 0000 000000
2017-03-26 03:24:33,0.29,8.54,0.00,24.99,27.50,30.63,14.31,50.40,1008.32,2024.99,1432.29,1575.57,1809.74,599.99,587.20,23.15,0000 0000 0000 0000 000000
2017-03-26 03:29:34,0.27,8.55,0.00,24.99,27.50,30.63,14.29,50.38,1008.32,2024.99,1430.38,1574.25,1808.24,599.69,586.90,23.20,0000 0000 0000 0000 000000
2017-03-26 03:34:35,0.30,8.57,0.00,24.99,27.50,30.60,14.27,50.20,1008.33,2024.99,1428.37,1572.94,1806.67,599.87,587.13,23.25,0000 0000 0000 0000 000000
2017-03-26 03:39:37,0.27,8.58,0.00,25.01,27.50,30.60,14.28,50.27,1008.41,2024.98,1426.59,1571.64,1805.16,599.90,587.16,23.30,0000 0000 0000 0000 000000
2017-03-26 03:44:38,0.25,8.60,0.00,25.03,27.50,30.58,14.24,50.13,1008.72,2024.99,1424.87,1570.50,1803.77,599.69,587.11,23.35,0000 0000 0000 0000 000000
2017-03-26 03:49:39,0.23,8.61,0.00,25.04,27.50,30.59,14.29,50.28,1008.72,2024.99,1423.25,1569.39,1802.46,600.32,587.72,23.40,0000 0000 0000 0000 000000
2017-03-26 03:54:40,0.24,8.62,0.00,25.04,27.50,30.58,14.27,50.50,1008.34,2024.98,1421.56,1568.15,1801.05,599.79,587.16,23.45,0000 0000 0000 0000 000000
2017-03-26 03:59:41,0.28,8.63,0.00,25.05,27.50,30.57,14.23,50.44,1008.32,2024.95,1419.74,1566.94,1799.63,599.82,586.92,23.50,0000 0000 0000 0000 000000
2017-03-26 04:04:43,0.26,8.65,0.00,25.05,27.50,30.59,14.27,50.45,1008.32,2024.97,1417.98,1565.70,1798.25,600.04,587.15,23.55,0000 0000 0000 0000 000000
2017-03-26 04:09:44,0.26,8.66,0.00,25.07,27.50,30.56,14.26,50.61,1008.32,2024.98,1416.30,1564.57,1796.84,600.00,587.17,23.60,0000 0000 0000 0000 000000
2017-03-26 04:14:45,0.26,8.68,0.00,25.05,27.50,30.54,14.23,50.34,1008.32,2024.98,1414.57,1563.47,1795.51,599.86,587.11,23.65,0000 0000 0000 0000 000000
2017-03-26 04:19:47,0.24,8.69,0.00,25.01,27.48,30.56,14.24,50.29,1008.32,2024.96,1412.81,1562.31,1794.10,599.77,586.98,23.70,0000 0000 0000 0000 000000
2017-03-26 04:24:48,0.24,8.70,0.00,25.01,27.47,30.55,14.23,50.30,1008.32,2024.95,1411.14,1561.13,1792.73,600.53,587.59,23.75,0000 0000 0000 0000 000000
2017-03-26 04:29:49,0.24,8.71,0.00,25.01,27.47,30.54,14.31,50.13,1008.33,2024.97,1409.54,1560.05,1791.57,600.24,587.33,23.80,0000 0000 0000 0000 000000
2017-03-26 04:34:50,0.25,8.73,0.00,24.99,27.46,30.53,14.32,50.25,1008.38,2024.97,1407.86,1558.89,1790.27,599.86,587.00,23.85,0000 0000 0000 0000 000000
2017-03-26 04:39:52,0.26,8.74,0.00,25.00,27.45,30.53,14.16,50.04,1008.45,2024.97,1406.18,1557.75,1788.84,600.04,587.32,23.90,0000 0000 0000 0000 000000
2017-03-26 04:44:53,0.26,8.75,0.00,25.01,27.45,30.54,14.23,50.16,1008.48,2024.98,1404.46,1556.61,1787.53,599.83,587.12,23.95,0000 0000 0000 0000 000000
2017-03-26 04:49:54,0.26,8.77,0.00,25.00,27.44,30.53,14.25,50.15,1008.38,2024.99,1402.66,1555.47,1786.15,599.80,587.04,24.00,0000 0000 0000 0000 000000
2017-03-26 04:54:56,0.26,8.78,0.00,25.02,27.42,30.55,14.23,50.12,1008.34,2024.99,1400.86,1554.34,1784.75,600.42,587.63,24.05,0000 0000 0000 0000 000000
2017-03-26 04:59:57,0.25,8.79,0.00,25.03,27.42,30.53,14.25,50.26,1008.32,2024.99,1399.12,1553.16,1783.41,599.97,587.06,24.10,0000 0000 0000 0000 000000
2017-03-26 05:04:58,0.24,8.81,0.00,25.00,27.42,30.53,14.22,50.16,1008.32,2024.99,1397.41,1552.02,1781.96,599.99,587.09,24.15,0000 0000 0000 0000 000000
2017-03-26 05:10:00,0.27,8.82,0.00,25.01,27.42,30.52,14.26,50.25,1008.31,2024.99,1395.73,1550.87,1780.65,599.98,587.31,24.21,0000 0000 0000 0000 000000
2017-03-26 05:15:01,0.26,8.83,0.00,25.01,27.40,30.52,14.24,50.32,1008.29,2024.99,1393.93,1549.74,1779.25,600.00,587.26,24.26,0000 0000 0000 0000 000000
2017-03-26 05:20:02,0.27,8.85,0.00,25.03,27.40,30.52,14.18,50.26,1008.30,2024.99,1392.24,1548.55,1777.86,599.80,586.91,24.31,0000 0000 0000 0000 000000
2017-03-26 05:25:03,0.27,8.86,0.00,25.04,27.40,30.51,14.25,50.18,1008.30,2024.99,1390.49,1547.43,1776.54,599.89,587.01,24.36,0000 0000 0000 0000 000000
2017-03-26 05:30:05,0.27,8.87,0.00,24.98,27.40,30.52,14.22,50.13,1008.28,2024.99,1388.56,1546.20,1775.06,599.79,587.00,24.41,0000 0000 0000 0000 000000
2017-03-26 05:35:06,0.27,8.89,0.00,24.97,27.40,30.52,14.24,50.26,1008.23,2024.99,1386.80,1545.02,1773.61,599.62,586.83,24.46,0000 0000 0000 0000 000000
2017-03-26 05:40:07,0.25,8.90,0.00,25.01,27.39,30.52,14.25,50.19,1008.26,2024.99,1385.09,1543.87,1772.28,600.25,587.39,24.51,0000 0000 0000 0000 000000
2017-03-26 05:45:08,0.29,8.91,0.00,25.01,27.39,30.52,14.28,50.30,1008.23,2024.99,1383.32,1542.67,1770.85,600.24,587.23,24.56,0000 0000 0000 0000 000000
2017-03-26 05:50:09,0.28,8.93,0.00,25.03,27.38,30.51,14.25,50.17,1008.22,2025.00,1381.51,1541.52,1769.46,600.15,587.13,24.61,0000 0000 0000 0000 000000
2017-03-26 05:55:11,0.25,8.94,0.00,25.03,27.37,30.50,14.28,50.24,1008.10,2025.00,1379.81,1540.36,1768.12,600.59,587.60,24.66,0000 0000 0000 0000 000000
2017-03-26 06:00:12,0.28,8.96,0.00,25.02,27.37,30.51,14.23,50.27,1008.16,2025.01,1378.01,1539.19,1766.67,599.94,587.00,24.71,0000 0000 0000 0000 000000
2017-03-26 06:05:13,0.25,8.97,0.00,24.99,27.37,30.50,14.18,50.15,1008.23,2025.00,1376.26,1537.99,1765.23,599.63,586.74,24.76,0000 0000 0000 0000 000000
2017-03-26 06:10:15,0.28,8.98,0.00,25.02,27.37,30.50,14.20,50.23,1008.25,2025.00,1374.54,1536.85,1763.87,599.57,586.67,24.81,0000 0000 0000 0000 000000
2017-03-26 06:15:16,0.29,8.99,0.00,25.03,27.37,30.50,14.24,50.28,1007.90,2025.00,1372.74,1535.74,1762.56,600.23,586.92,24.86,0000 0000 0000 0000 000000
2017-03-26 06:20:17,0.21,9.01,0.00,25.01,27.37,30.50,14.28,50.38,1007.83,2025.00,1371.09,1534.79,1761.19,600.22,587.23,24.91,0000 0000 0000 0000 000000
2017-03-26 06:25:18,0.25,9.02,0.00,24.99,27.37,30.49,14.21,50.40,1007.83,2025.00,1369.52,1533.74,1759.90,599.79,586.73,24.96,0000 0000 0000 0000 000000
2017-03-26 06:30:20,0.27,9.03,0.00,25.02,27.37,30.48,14.29,50.42,1007.83,2025.00,1367.87,1532.65,1758.61,599.99,586.74,25.01,0000 0000 0000 0000 000000
2017-03-26 06:35:21,0.23,9.05,0.00,25.05,27.37,30.49,14.27,50.51,1007.83,2025.00,1366.27,1531.57,1757.28,599.89,586.69,25.06,0000 0000 0000 0000 000000
2017-03-26 06:40:23,0.27,9.06,0.00,25.00,27.37,30.46,14.24,50.48,1007.83,2025.00,1364.58,1530.44,1755.93,599.98,586.89,25.11,0000 0000 0000 0000 000000
2017-03-26 06:45:24,0.26,9.07,0.00,25.01,27.37,30.48,14.22,50.52,1007.83,2025.00,1362.89,1529.38,1754.64,600.12,586.97,25.16,0000 0000 0000 0000 000000
2017-03-26 06:50:25,0.23,9.09,0.00,25.02,27.37,30.48,14.27,50.41,1007.83,2025.00,1361.36,1528.28,1753.35,599.76,586.71,25.21,0000 0000 0000 0000 000000
2017-03-26 06:55:26,0.25,9.10,0.00,25.04,27.37,30.47,14.33,50.48,1007.83,2025.00,1359.76,1527.19,1752.03,600.30,587.11,25.26,0000 0000 0000 0000 000000
2017-03-26 07:00:27,0.27,9.11,0.00,25.05,27.37,30.46,14.23,50.35,1007.84,2025.00,1358.00,1526.06,1750.66,600.06,586.85,25.31,0000 0000 0000 0000 000000
2017-03-26 07:05:28,0.24,9.12,0.00,25.04,27.37,30.48,14.29,50.31,1007.86,2025.00,1356.43,1524.92,1749.44,600.18,587.02,25.36,0000 0000 0000 0000 000000
2017-03-26 07:10:29,0.26,9.14,0.00,25.03,27.37,30.47,14.23,50.27,1007.85,2025.00,1354.71,1523.85,1748.03,600.02,586.89,25.41,0000 0000 0000 0000 000000
2017-03-26 07:15:30,0.26,9.15,0.00,25.04,27.37,30.47,14.32,50.27,1007.83,2025.00,1353.13,1522.74,1746.75,600.22,586.91,25.46,0000 0000 0000 0000 000000
2017-03-26 07:20:32,0.28,9.16,0.00,25.04,27.37,30.48,14.29,50.26,1007.83,2025.00,1351.46,1521.62,1745.46,600.29,587.10,25.51,0000 0000 0000 0000 000000
2017-03-26 07:25:33,0.24,9.18,0.00,25.04,27.37,30.49,14.23,50.23,1007.83,2025.00,1349.84,1520.58,1744.25,599.86,586.70,25.56,0000 0000 0000 0000 000000
2017-03-26 07:30:34,0.23,9.19,0.00,25.04,27.37,30.48,14.28,50.31,1007.83,2025.00,1348.38,1519.57,1742.96,599.88,586.77,25.61,0000 0000 0000 0000 000000
2017-03-26 07:35:35,0.27,9.20,0.00,25.02,27.37,30.49,14.32,50.31,1007.83,2025.00,1346.77,1518.47,1741.63,600.09,587.03,25.66,0000 0000 0000 0000 000000
2017-03-26 07:40:36,0.24,9.21,0.00,25.02,27.37,30.49,14.26,50.19,1007.83,2025.00,1345.15,1517.44,1740.46,599.96,586.80,25.71,0000 0000 0000 0000 000000
2017-03-26 07:45:38,0.25,9.23,0.00,24.98,27.37,30.49,14.25,50.23,1007.81,2025.00,1343.53,1516.31,1739.10,600.05,587.04,25.76,0000 0000 0000 0000 000000
2017-03-26 07:50:39,0.22,9.24,0.00,24.95,27.37,30.48,14.28,50.18,1007.74,2025.00,1342.19,1515.32,1737.90,599.80,586.79,25.81,0000 0000 0000 0000 000000
2017-03-26 07:55:40,0.26,9.25,0.00,24.99,27.37,30.47,14.24,50.27,1007.39,2025.00,1340.63,1514.23,1736.66,599.75,586.38,25.86,0000 0000 0000 0000 000000
2017-03-26 08:00:41,0.24,9.26,0.00,25.02,27.36,30.46,14.27,50.30,1007.33,2025.00,1339.00,1513.17,1735.43,599.97,586.57,25.91,0000 0000 0000 0000 000000
2017-03-26 08:05:43,0.25,9.28,0.00,24.99,27.35,30.46,14.23,50.38,1007.22,2025.00,1337.45,1512.11,1734.13,599.95,586.54,25.96,0000 0000 0000 0000 000000
2017-03-26 08:10:44,0.25,9.29,0.00,25.00,27.35,30.46,14.23,50.40,1007.06,2025.00,1335.85,1511.05,1732.84,599.85,586.28,26.01,0000 0000 0000 0000 000000
2017-03-26 08:15:45,0.25,9.30,0.00,25.02,27.35,30.45,14.24,50.30,1006.91,2025.00,1334.28,1510.01,1731.60,600.00,586.37,26.06,0000 0000 0000 0000 000000
2017-03-26 08:20:47,0.26,9.32,0.00,24.95,27.35,30.43,14.20,50.34,1006.94,2025.01,1332.66,1508.92,1730.34,599.74,586.28,26.11,0000 0000 0000 0000 000000
2017-03-26 08:25:48,0.25,9.33,0.00,24.92,27.33,30.43,14.21,50.31,1007.05,2025.01,1331.04,1507.90,1729.06,600.09,586.70,26.16,0000 0000 0000 0000 000000
2017-03-26 08:30:49,0.27,9.34,0.00,25.00,27.32,30.44,14.29,50.24,1006.94,2025.03,1329.31,1506.82,1727.80,600.15,586.69,26.21,0000 0000 0000 0000 000000
2017-03-26 08:35:50,0.27,9.36,0.00,24.96,27.32,30.43,14.26,50.27,1006.85,2025.02,1327.69,1505.76,1726.65,599.96,586.44,26.26,0000 0000 0000 0000 000000
2017-03-26 08:40:52,0.23,9.37,0.00,24.99,27.32,30.43,14.25,50.26,1006.73,2025.05,1326.18,1504.75,1725.53,600.01,586.31,26.31,0000 0000 0000 0000 000000
2017-03-26 08:45:53,0.30,9.38,0.00,24.93,27.31,30.43,14.28,50.54,1006.39,2025.06,1324.32,1503.67,1724.09,600.14,586.45,26.36,0000 0000 0000 0000 000000
2017-03-26 08:50:55,0.30,9.40,0.00,24.86,27.30,30.42,14.32,50.72,1006.33,2025.14,1322.46,1502.46,1722.67,599.90,586.26,26.41,0000 0000 0000 0000 000000
2017-03-26 08:55:56,0.28,9.41,0.00,24.96,27.30,30.39,14.19,50.83,1006.09,2025.34,1320.85,1501.36,1721.41,599.83,585.86,26.46,0000 0000 0000 0000 000000
2017-03-26 09:00:57,0.21,9.43,0.00,24.99,27.30,30.39,14.29,50.77,1006.15,2025.27,1319.53,1500.37,1720.22,600.09,585.90,26.51,0000 0000 0000 0000 000000
2017-03-26 09:05:59,0.32,9.44,0.00,24.99,27.30,30.39,14.23,50.66,1006.31,2025.54,1317.86,1499.33,1718.95,600.03,586.17,26.56,0000 0000 0000 0000 000000
2017-03-26 09:11:00,0.28,9.45,0.00,25.01,27.29,30.38,14.20,50.56,1006.28,2025.65,1316.28,1498.23,1717.65,599.53,585.60,26.61,0000 0000 0000 0000 000000
2017-03-26 09:16:01,0.24,9.47,0.00,24.99,27.28,30.39,14.27,50.67,1006.24,2025.60,1314.57,1497.17,1716.36,599.83,585.85,26.66,0000 0000 0000 0000 000000
2017-03-26 09:21:02,0.27,9.48,0.00,25.00,27.27,30.39,14.25,50.61,1006.24,2025.74,1312.94,1496.08,1715.05,599.83,585.86,26.71,0000 0000 0000 0000 000000
2017-03-26 09:26:04,0.27,9.50,0.00,25.00,27.27,30.38,14.24,50.65,1006.11,2025.79,1311.41,1495.04,1713.81,600.03,585.98,26.76,0000 0000 0000 0000 000000
2017-03-26 09:31:05,0.27,9.51,0.00,25.01,27.27,30.39,14.24,50.75,1005.95,2025.81,1309.83,1493.94,1712.57,599.79,585.60,26.81,0000 0000 0000 0000 000000
2017-03-26 09:36:06,0.24,9.52,0.00,25.00,27.27,30.39,14.25,50.70,1005.98,2025.74,1308.33,1492.89,1711.33,600.22,586.13,26.86,0000 0000 0000 0000 000000
2017-03-26 09:41:08,0.26,9.53,0.00,24.98,27.27,30.39,14.29,50.73,1005.89,2025.76,1306.77,1491.87,1710.05,600.08,586.01,26.91,0000 0000 0000 0000 000000
2017-03-26 09:46:09,0.26,9.55,0.00,24.99,27.27,30.40,14.20,50.68,1005.89,2025.84,1305.25,1490.78,1708.73,599.96,585.77,26.96,0000 0000 0000 0000 000000
2017-03-26 09:51:10,0.27,9.56,0.00,24.99,27.27,30.39,14.21,50.64,1005.96,2025.88,1303.74,1489.79,1707.59,600.28,586.07,27.02,0000 0000 0000 0000 000000
2017-03-26 09:56:12,0.24,9.57,0.00,25.00,27.27,30.39,14.19,50.57,1006.00,2025.91,1302.31,1488.76,1706.40,600.20,586.06,27.07,0000 0000 0000 0000 000000
2017-03-26 10:01:13,0.22,9.59,0.00,24.99,27.27,30.39,14.30,50.56,1006.04,2025.89,1300.83,1487.79,1705.22,599.99,585.88,27.12,0000 0000 0000 0000 000000
2017-03-26 10:06:14,0.20,9.59,0.00,24.97,27.27,30.40,14.21,50.48,1006.01,2025.65,1299.51,1486.71,1704.00,599.89,585.80,27.17,0000 0000 0000 0000 000000
2017-03-26 10:11:16,0.24,9.61,0.00,24.99,27.27,30.39,14.26,50.45,1006.12,2025.56,1298.04,1485.74,1702.80,599.92,585.81,27.22,0000 0000 0000 0000 000000
2017-03-26 10:16:17,0.29,9.62,0.00,25.00,27.27,30.41,14.22,50.39,1006.04,2025.55,1296.53,1484.73,1701.60,600.14,585.98,27.27,0000 0000 0000 0000 000000
2017-03-26 10:21:18,0.20,9.63,0.00,25.00,27.27,30.40,14.20,50.39,1005.89,2025.55,1295.02,1483.74,1700.43,599.79,585.55,27.32,0000 0000 0000 0000 000000
2017-03-26 10:26:19,0.24,9.64,0.00,25.00,27.27,30.41,14.19,50.46,1005.87,2025.45,1293.67,1482.77,1699.26,600.05,585.90,27.37,0000 0000 0000 0000 000000
2017-03-26 10:31:21,0.23,9.66,0.00,25.00,27.27,30.41,14.23,50.32,1005.84,2025.36,1292.13,1481.72,1697.99,599.86,585.64,27.42,0000 0000 0000 0000 000000
2017-03-26 10:36:22,0.29,9.67,0.00,24.99,27.27,30.41,14.23,50.38,1005.51,2025.45,1290.56,1480.73,1696.79,599.90,585.44,27.47,0000 0000 0000 0000 000000
2017-03-26 10:41:23,0.30,9.68,0.00,25.01,27.27,30.42,14.22,50.20,1005.41,2025.58,1288.90,1479.68,1695.59,599.98,585.52,27.52,0000 0000 0000 0000 000000
2017-03-26 10:46:25,0.27,9.70,0.00,24.99,27.27,30.42,14.22,50.46,1005.39,2025.71,1287.14,1478.60,1694.23,599.86,585.58,27.57,0000 0000 0000 0000 000000
2017-03-26 10:51:26,0.26,9.71,0.00,24.98,27.28,30.43,14.23,50.77,1005.16,2025.58,1285.66,1477.55,1692.91,600.05,585.52,27.62,0000 0000 0000 0000 000000
2017-03-26 10:56:27,0.25,9.72,0.00,25.01,27.28,30.43,14.26,50.67,1004.93,2025.55,1284.14,1476.53,1691.73,599.85,585.10,27.67,0000 0000 0000 0000 000000
2017-03-26 11:01:29,0.29,9.74,0.00,25.00,27.29,30.43,14.30,50.69,1004.91,2025.70,1282.65,1475.54,1690.55,600.35,585.51,27.72,0000 0000 0000 0000 000000
2017-03-26 11:06:29,0.22,9.75,0.00,25.00,27.29,30.43,14.24,50.69,1004.90,2025.71,1281.27,1474.55,1689.37,600.02,585.21,27.77,0000 0000 0000 0000 000000
2017-03-26 11:11:31,0.26,9.76,0.00,24.98,27.29,30.43,14.28,50.87,1004.90,2025.75,1279.76,1473.55,1688.14,600.04,585.27,27.82,0000 0000 0000 0000 000000
2017-03-26 11:16:32,0.22,9.77,0.00,24.97,27.30,30.44,14.20,50.92,1004.90,2025.50,1278.40,1472.52,1686.89,599.75,585.00,27.87,0000 0000 0000 0000 000000
2017-03-26 11:21:33,0.22,9.79,0.00,24.97,27.30,30.42,14.21,50.87,1004.90,2025.42,1276.91,1471.59,1685.70,600.08,585.35,27.92,0000 0000 0000 0000 000000
2017-03-26 11:26:35,0.26,9.80,0.00,24.97,27.30,30.43,14.17,50.72,1004.90,2025.46,1275.52,1470.70,1684.56,599.75,584.98,27.97,0000 0000 0000 0000 000000
2017-03-26 11:31:36,0.24,9.81,0.00,24.96,27.30,30.46,14.24,50.87,1004.90,2025.75,1274.25,1469.83,1683.47,599.84,585.11,28.02,0000 0000 0000 0000 000000
2017-03-26 11:36:37,0.21,9.82,0.00,24.94,27.30,30.43,14.26,50.74,1004.88,2025.61,1272.81,1468.83,1682.32,600.14,585.61,28.07,0000 0000 0000 0000 000000
2017-03-26 11:41:38,0.25,9.83,0.00,24.95,27.30,30.42,14.26,50.63,1004.86,2025.69,1271.43,1467.88,1681.15,600.56,585.82,28.12,0000 0000 0000 0000 000000
2017-03-26 11:46:40,0.25,9.85,0.00,24.94,27.30,30.42,14.21,50.60,1004.82,2025.76,1269.92,1466.89,1679.97,599.88,585.17,28.17,0000 0000 0000 0000 000000
2017-03-26 11:51:41,0.24,9.86,0.00,24.94,27.30,30.42,14.18,50.71,1004.72,2025.72,1268.55,1465.90,1678.79,600.06,585.22,28.22,0000 0000 0000 0000 000000
2017-03-26 11:56:43,0.25,9.87,0.00,24.96,27.30,30.42,14.20,50.73,1004.53,2025.76,1267.16,1464.97,1677.70,599.63,584.72,28.27,0000 0000 0000 0000 000000
2017-03-26 12:01:44,0.25,9.88,0.00,24.95,27.30,30.42,14.23,50.72,1004.43,2025.76,1265.76,1464.01,1676.53,599.86,584.96,28.32,0000 0000 0000 0000 000000
2017-03-26 12:06:45,0.19,9.90,0.00,24.96,27.30,30.42,14.24,50.82,1004.47,2025.58,1264.38,1463.03,1675.40,599.93,584.95,28.37,0000 0000 0000 0000 000000
2017-03-26 12:11:47,0.21,9.91,0.00,24.97,27.30,30.43,14.22,50.77,1004.52,2025.36,1262.96,1462.03,1674.31,600.23,585.22,28.42,0000 0000 0000 0000 000000
2017-03-26 12:16:48,0.27,9.92,0.00,24.96,27.30,30.42,14.23,50.72,1004.47,2025.37,1261.49,1461.07,1673.08,599.94,584.95,28.47,0000 0000 0000 0000 000000
2017-03-26 12:21:49,0.24,9.93,0.00,24.96,27.30,30.42,14.20,50.73,1004.42,2025.37,1260.02,1460.13,1671.90,600.18,585.19,28.52,0000 0000 0000 0000 000000
2017-03-26 12:26:51,0.22,9.94,0.00,24.94,27.30,30.43,14.19,50.77,1004.43,2025.20,1258.67,1459.14,1670.76,599.83,584.89,28.57,0000 0000 0000 0000 000000
2017-03-26 12:31:52,0.22,9.96,0.00,24.93,27.30,30.43,14.13,50.77,1004.42,2025.08,1257.25,1458.13,1669.62,599.35,584.40,28.62,0000 0000 0000 0000 000000
2017-03-26 12:36:54,0.25,9.97,0.00,24.90,27.30,30.42,14.15,50.58,1004.42,2025.14,1255.93,1457.21,1668.53,599.63,584.75,28.67,0000 0000 0000 0000 000000
2017-03-26 12:41:55,0.24,9.98,0.00,24.91,27.30,30.44,14.21,50.52,1004.43,2025.17,1254.68,1456.38,1667.50,600.04,585.13,28.72,0000 0000 0000 0000 000000
2017-03-26 12:46:57,0.23,9.99,0.00,24.91,27.30,30.46,14.19,50.59,1004.41,2025.25,1253.34,1455.51,1666.38,599.79,584.95,28.77,0000 0000 0000 0000 000000
2017-03-26 12:51:58,0.24,10.01,0.00,24.93,27.30,30.45,14.28,50.62,1004.41,2025.20,1251.95,1454.51,1665.32,600.34,585.43,28.82,0000 0000 0000 0000 000000
2017-03-26 12:57:00,0.24,10.02,0.00,24.95,27.30,30.45,14.13,50.56,1004.40,2025.11,1250.56,1453.55,1664.17,599.69,584.64,28.87,0000 0000 0000 0000 000000